Overview Statistics Trail Chart Weather Telemetry Raw packets
 

This is the latest recevied weather packets stored in our database for station/object KE5OYL. If no packets are shown the sender has not sent any weather packets the latest 10 day(s).

<< 13 14 15 16 17 18 19 >>
Time Temp. Humidity Pressure Rain* Wind** Luminosity Snow
1788530000 26.11° C 89% 1015.5 hPa 0 mm - 173 W/m² -
1788529696 26.11° C 89% 1015.5 hPa 0 mm - 142 W/m² -
1788529396 26.11° C 89% 1015.4 hPa 0 mm - 132 W/m² -
1788529090 26.11° C 89% 1015.5 hPa 0 mm - 87 W/m² -
1788528786 26.11° C 89% 1015.2 hPa 0 mm - 97 W/m² -
1788528486 26.11° C 89% 1015.3 hPa 0 mm - 150 W/m² -
1788528181 26.11° C 89% 1015.2 hPa 0 mm - 104 W/m² -
1788527880 26.11° C 89% 1015.2 hPa 0 mm - 126 W/m² -
1788527576 25.56° C 89% 1015 hPa 0 mm - 95 W/m² -
1788527276 25.56° C 90% 1015 hPa 0 mm - 85 W/m² -
1788526976 25.56° C 91% 1015.2 hPa 0 mm - 69 W/m² -
1788526671 25° C 91% 1014.9 hPa 0 mm - 60 W/m² -
1788526367 25° C 92% 1015.3 hPa 0 mm - 55 W/m² -
1788526061 25° C 92% 1014.8 hPa 0 mm - 48 W/m² -
1788525757 25° C 92% 1014.8 hPa 0 mm - 36 W/m² -
1788525452 25° C 92% 1015 hPa 0 mm - 32 W/m² -
1788525147 25° C 92% 1014.9 hPa 0 mm - 25 W/m² -
1788524842 24.44° C 92% 1014.7 hPa 0 mm - 18 W/m² -
1788524536 24.44° C 92% 1014.9 hPa 0 mm - 12 W/m² -
1788524232 24.44° C 92% 1014.7 hPa 0 mm - 9 W/m² -
1788523927 24.44° C 92% 1014.9 hPa 0 mm - 6 W/m² -
1788523623 24.44° C 92% 1014.7 hPa 0 mm - 4 W/m² -
1788523319 24.44° C 92% 1014.7 hPa 0 mm - 2 W/m² -
1788523015 24.44° C 91% 1014.5 hPa 0 mm - 1 W/m² -
1788522710 24.44° C 91% 1014.7 hPa 0 mm - 0 W/m² -

* Rain latest hour (hover to see other rain measurements)
** Current wind speed in m/s (hover to see current wind gust speed)